F8KHU-13 Weather Reports


time (UTC)temp
C
wind
direction
speed
KPH
gust
KPH
rain 1hr
cm
rain 24hr
cm
rain mn
cm
humidity
%
barometer
mb
20260510041016 12 132 0.0 3.2 0.00 0.00 0.00 30 1015.9
20260510040956 12 133 0.0 3.2 0.00 0.00 0.00 30 1015.8
20260510035536 13 129 0.0 3.2 0.00 0.00 0.00 30 1015.8
20260510035516 13 129 0.0 3.2 0.00 0.00 0.00 30 1015.9
20260510035456 13 130 0.0 3.2 0.00 0.00 0.00 30 1015.9
20260510034036 12 137 0.0 1.6 0.00 0.00 0.00 30 1016.0
20260510034016 12 139 0.0 1.6 0.00 0.00 0.00 30 1016.0
20260510033956 12 143 0.0 1.6 0.00 0.00 0.00 30 1015.9
20260510032536 12 103 0.0 3.2 0.00 0.00 0.00 30 1015.8
20260510032456 12 102 0.0 3.2 0.00 0.00 0.00 30 1015.8
20260510031036 12 145 0.0 1.6 0.00 0.00 0.00 30 1015.8
20260510031016 12 147 0.0 1.6 0.00 0.00 0.00 30 1015.8
20260510030956 12 150 0.0 1.6 0.00 0.00 0.00 30 1015.8
20260510025536 13 115 0.0 1.6 0.00 0.00 0.00 30 1015.9
20260510025516 13 113 0.0 1.6 0.00 0.00 0.00 30 1015.9
20260510025456 13 112 0.0 1.6 0.00 0.00 0.00 30 1015.9
20260510024017 12 112 0.0 3.2 0.00 0.00 0.00 30 1016.4
20260510023957 12 111 0.0 3.2 0.00 0.00 0.00 30 1016.4
20260510022537 12 151 1.6 3.2 0.00 0.00 0.00 30 1016.4
20260510022517 12 152 1.6 3.2 0.00 0.00 0.00 30 1016.4
20260510022457 12 153 1.6 3.2 0.00 0.00 0.00 30 1016.4
20260510021017 13 107 0.0 3.2 0.00 0.00 0.00 30 1016.4
20260510020957 13 108 0.0 3.2 0.00 0.00 0.00 30 1016.4
20260510015537 13 135 0.0 1.6 0.00 0.00 0.00 30 1016.2
20260510015517 13 136 0.0 1.6 0.00 0.00 0.00 30 1016.3
20260510015457 13 137 0.0 1.6 0.00 0.00 0.00 30 1016.2
20260510014037 13 80 0.0 1.6 0.00 0.00 0.00 30 1016.3
20260510014017 13 77 0.0 1.6 0.00 0.00 0.00 30 1016.3
20260510013957 13 75 0.0 1.6 0.00 0.00 0.00 30 1016.3
20260510012537 14 79 0.0 1.6 0.00 0.00 0.00 30 1016.4
20260510012517 14 80 0.0 1.6 0.00 0.00 0.00 30 1016.5
20260510012457 14 81 0.0 1.6 0.00 0.00 0.00 30 1016.5
20260510011017 14 113 0.0 1.6 0.00 0.00 0.00 29 1016.7
20260510010957 14 113 0.0 1.6 0.00 0.00 0.00 29 1016.6
20260510005538 14 146 0.0 1.6 0.00 0.00 0.00 29 1016.8
20260510005518 14 148 0.0 1.6 0.00 0.00 0.00 29 1016.9
20260510005458 14 150 0.0 1.6 0.00 0.00 0.00 29 1016.8
20260510004038 14 128 0.0 1.6 0.00 0.00 0.00 29 1017.0
20260510004018 14 129 0.0 1.6 0.00 0.00 0.00 29 1017.0
20260510003958 14 130 0.0 1.6 0.00 0.00 0.00 29 1016.9
20260510002518 15 159 0.0 3.2 0.00 0.00 0.00 29 1017.2
20260510002458 15 158 0.0 3.2 0.00 0.00 0.00 29 1017.2
20260510001038 15 146 0.0 1.6 0.00 0.00 0.00 29 1017.1
20260510001018 15 144 0.0 1.6 0.00 0.00 0.00 29 1017.2
20260510000958 15 142 0.0 1.6 0.00 0.00 0.00 29 1017.2
20260509235533 15 67 0.0 1.6 0.00 0.00 0.00 29 1017.3
20260509235453 15 68 0.0 1.6 0.00 0.00 0.00 29 1017.3
20260509234013 15 41 0.0 1.6 0.00 0.00 0.00 29 1017.3
20260509233953 15 42 0.0 1.6 0.00 0.00 0.00 29 1017.3
20260509232533 15 97 0.0 3.2 0.00 0.00 0.00 29 1017.4
20260509232513 15 95 0.0 3.2 0.00 0.00 0.00 29 1017.3
20260509232453 15 93 0.0 3.2 0.00 0.00 0.00 29 1017.3
20260509231033 15 103 0.0 1.6 0.00 0.00 0.00 29 1017.3
20260509231014 15 106 0.0 1.6 0.00 0.00 0.00 29 1017.4
20260509230954 15 103 0.0 1.6 0.00 0.00 0.00 29 1017.4
20260509225534 16 204 0.0 3.2 0.00 0.00 0.00 29 1017.4
20260509225514 16 206 0.0 3.2 0.00 0.00 0.00 28 1017.3
20260509225454 16 210 0.0 3.2 0.00 0.00 0.00 28 1017.4
20260509224034 16 154 0.0 3.2 0.00 0.00 0.00 28 1017.4
20260509224014 16 155 0.0 3.2 0.00 0.00 0.00 28 1017.4
20260509223954 16 157 0.0 3.2 0.00 0.00 0.00 28 1017.4
20260509222514 16 142 0.0 3.2 0.00 0.00 0.00 28 1017.4
20260509222454 16 141 1.6 3.2 0.00 0.00 0.00 28 1017.5
20260509221034 17 153 0.0 3.2 0.00 0.00 0.00 28 1017.6
20260509221014 17 154 0.0 3.2 0.00 0.00 0.00 28 1017.6
20260509220954 17 155 0.0 3.2 0.00 0.00 0.00 28 1017.6
20260509215534 17 141 0.0 1.6 0.00 0.00 0.00 28 1017.7
20260509215514 17 140 0.0 1.6 0.00 0.00 0.00 28 1017.7
20260509215454 17 139 0.0 1.6 0.00 0.00 0.00 28 1017.7
20260509214034 17 160 0.0 3.2 0.00 0.00 0.00 28 1017.7
20260509214014 17 162 0.0 3.2 0.00 0.00 0.00 28 1017.8
20260509213954 17 164 0.0 3.2 0.00 0.00 0.00 28 1017.7
20260509212534 18 134 0.0 3.2 0.00 0.00 0.00 28 1017.6
20260509212515 18 135 1.6 3.2 0.00 0.00 0.00 28 1017.6
20260509212454 18 133 0.0 3.2 0.00 0.00 0.00 28 1017.6
20260509211034 18 142 0.0 1.6 0.00 0.00 0.00 27 1017.6
20260509211014 18 143 0.0 1.6 0.00 0.00 0.00 27 1017.6
20260509210954 18 144 0.0 1.6 0.00 0.00 0.00 27 1017.7
20260509205534 18 142 0.0 6.4 0.00 0.00 0.00 27 1017.6
20260509205514 18 144 0.0 6.4 0.00 0.00 0.00 27 1017.6
20260509205454 18 147 0.0 6.4 0.00 0.00 0.00 27 1017.7
20260509204035 19 140 0.0 3.2 0.00 0.00 0.00 27 1017.6
20260509204026 19 138 0.0 3.2 0.00 0.00 0.00 27 1017.6
20260509204015 19 139 1.6 3.2 0.00 0.00 0.00 27 1017.6
20260509203955 19 138 0.0 3.2 0.00 0.00 0.00 27 1017.6
20260509202535 20 138 1.6 6.4 0.00 0.00 0.00 27 1017.7
20260509202515 20 139 0.0 6.4 0.00 0.00 0.00 27 1017.6
20260509202455 20 137 0.0 6.4 0.00 0.00 0.00 27 1017.7
20260509201035 20 154 0.0 3.2 0.00 0.00 0.00 27 1017.7
20260509200955 20 154 0.0 3.2 0.00 0.00 0.00 27 1017.7
20260509195535 20 147 0.0 3.2 0.00 0.00 0.00 27 1017.6
20260509195515 20 146 0.0 3.2 0.00 0.00 0.00 26 1017.5
20260509195455 21 147 0.0 3.2 0.00 0.00 0.00 27 1017.6
20260509194035 21 130 1.6 6.4 0.00 0.00 0.00 26 1017.5
20260509194015 21 128 0.0 6.4 0.00 0.00 0.00 26 1017.5
20260509193955 21 127 0.0 6.4 0.00 0.00 0.00 26 1017.5
20260509192536 22 126 0.0 3.2 0.00 0.00 0.00 26 1017.3
20260509192515 22 127 0.0 3.2 0.00 0.00 0.00 26 1017.4
20260509192456 22 127 0.0 3.2 0.00 0.00 0.00 26 1017.3
20260509191036 23 132 0.0 3.2 0.00 0.00 0.00 26 1017.4
20260509190956 23 133 0.0 3.2 0.00 0.00 0.00 26 1017.4
20260509185536 23 138 0.0 6.4 0.00 0.00 0.00 25 1017.3
20260509185516 23 136 0.0 6.4 0.00 0.00 0.00 25 1017.4
20260509185456 23 138 1.6 6.4 0.00 0.00 0.00 25 1017.3
20260509184036 25 157 0.0 11.3 0.00 0.00 0.00 25 1017.4
20260509184016 25 159 1.6 11.3 0.00 0.00 0.00 25 1017.3
20260509183956 25 159 3.2 11.3 0.00 0.00 0.00 25 1017.3
20260509182536 25 140 1.6 11.3 0.00 0.00 0.00 25 1017.2
20260509182516 25 139 0.0 11.3 0.00 0.00 0.00 25 1017.3
20260509182456 25 141 1.6 11.3 0.00 0.00 0.00 25 1017.3
20260509181036 26 142 1.6 11.3 0.00 0.00 0.00 24 1017.3
20260509181016 26 143 1.6 11.3 0.00 0.00 0.00 24 1017.3
20260509180956 26 144 0.0 11.3 0.00 0.00 0.00 24 1017.3
20260509175536 26 148 0.0 11.3 0.00 0.00 0.00 24 1017.2
20260509175516 26 151 0.0 11.3 0.00 0.00 0.00 24 1017.3
20260509175456 26 151 1.6 11.3 0.00 0.00 0.00 24 1017.2
20260509174036 26 161 1.6 11.3 0.00 0.00 0.00 24 1017.1
20260509173956 26 160 1.6 11.3 0.00 0.00 0.00 24 1017.1
20260509172537 27 151 6.4 12.9 0.00 0.00 0.00 24 1017.1
20260509172517 27 151 1.6 12.9 0.00 0.00 0.00 24 1017.1
20260509172457 27 152 3.2 12.9 0.00 0.00 0.00 24 1017.1
20260509171037 28 153 4.8 14.5 0.00 0.00 0.00 23 1017.2
20260509170957 28 151 1.6 14.5 0.00 0.00 0.00 23 1017.2
20260509165537 27 155 3.2 11.3 0.00 0.00 0.00 24 1017.1
20260509165517 27 155 4.8 11.3 0.00 0.00 0.00 24 1017.1
20260509165457 27 154 1.6 11.3 0.00 0.00 0.00 24 1017.1
20260509164037 28 142 6.4 11.3 0.00 0.00 0.00 23 1017.2
20260509164017 28 143 1.6 11.3 0.00 0.00 0.00 23 1017.2
20260509163957 28 143 0.0 11.3 0.00 0.00 0.00 23 1017.2
20260509162537 28 157 3.2 14.5 0.00 0.00 0.00 23 1017.2
20260509162517 28 155 4.8 14.5 0.00 0.00 0.00 23 1017.2
20260509162457 28 156 1.6 14.5 0.00 0.00 0.00 23 1017.2
20260509161038 30 144 1.6 8.0 0.00 0.00 0.00 23 1017.1
20260509161017 30 143 4.8 8.0 0.00 0.00 0.00 23 1017.1
20260509160957 30 144 1.6 8.0 0.00 0.00 0.00 23 1017.1
20260509155537 30 147 4.8 17.7 0.00 0.00 0.00 23 1017.1
20260509155517 30 148 8.0 17.7 0.00 0.00 0.00 23 1017.2
20260509155457 30 147 4.8 17.7 0.00 0.00 0.00 23 1017.1
20260509154038 30 133 1.6 12.9 0.00 0.00 0.00 23 1017.2
20260509154018 30 132 0.0 12.9 0.00 0.00 0.00 23 1017.2
20260509153958 30 131 4.8 12.9 0.00 0.00 0.00 23 1017.2
20260509152518 30 151 1.6 12.9 0.00 0.00 0.00 23 1017.3
20260509152458 30 152 1.6 12.9 0.00 0.00 0.00 23 1017.3
20260509151038 30 151 8.0 17.7 0.00 0.00 0.00 23 1017.4
20260509151018 30 150 1.6 17.7 0.00 0.00 0.00 23 1017.5
20260509150958 30 151 4.8 17.7 0.00 0.00 0.00 23 1017.4
20260509145538 31 137 1.6 12.9 0.00 0.00 0.00 22 1017.5
20260509145518 31 136 1.6 12.9 0.00 0.00 0.00 22 1017.5
20260509145458 31 139 3.2 12.9 0.00 0.00 0.00 22 1017.5
20260509144038 33 148 4.8 11.3 0.00 0.00 0.00 21 1017.5
20260509144018 33 147 1.6 11.3 0.00 0.00 0.00 21 1017.5
20260509143958 33 145 3.2 11.3 0.00 0.00 0.00 21 1017.5
20260509142533 33 134 1.6 12.9 0.00 0.00 0.00 21 1017.7
20260509142513 33 136 1.6 12.9 0.00 0.00 0.00 21 1017.7
20260509142453 33 137 3.2 12.9 0.00 0.00 0.00 21 1017.8
20260509141033 32 137 1.6 12.9 0.00 0.00 0.00 21 1017.8
20260509141013 32 136 1.6 12.9 0.00 0.00 0.00 21 1017.8
20260509140953 32 135 4.8 12.9 0.00 0.00 0.00 21 1017.8
20260509135533 35 148 11.3 14.5 0.00 0.00 0.00 19 1017.9
20260509135513 35 149 4.8 14.5 0.00 0.00 0.00 20 1017.9
20260509135453 35 148 1.6 14.5 0.00 0.00 0.00 19 1017.9
20260509134033 35 137 4.8 11.3 0.00 0.00 0.00 19 1018.0
20260509134013 35 137 1.6 11.3 0.00 0.00 0.00 19 1017.9
20260509133953 35 136 1.6 11.3 0.00 0.00 0.00 19 1018.0
20260509132534 35 128 1.6 12.9 0.00 0.00 0.00 19 1018.1
20260509132514 35 126 1.6 12.9 0.00 0.00 0.00 19 1018.2
20260509132454 35 127 4.8 12.9 0.00 0.00 0.00 18 1018.1
20260509131034 34 133 0.0 11.3 0.00 0.00 0.00 18 1018.4
20260509131014 34 133 1.6 11.3 0.00 0.00 0.00 18 1018.3
20260509130954 34 132 0.0 11.3 0.00 0.00 0.00 18 1018.4
20260509125534 35 142 4.8 12.9 0.00 0.00 0.00 18 1018.3
20260509125514 35 142 0.0 12.9 0.00 0.00 0.00 18 1018.3
20260509125454 35 141 1.6 12.9 0.00 0.00 0.00 18 1018.3
20260509124035 35 132 0.0 8.0 0.00 0.00 0.00 19 1018.3
20260509124014 35 131 0.0 8.0 0.00 0.00 0.00 19 1018.4
20260509123954 35 134 0.0 8.0 0.00 0.00 0.00 19 1018.4
20260509122534 35 135 3.2 12.9 0.00 0.00 0.00 19 1018.5
20260509122514 35 133 1.6 12.9 0.00 0.00 0.00 19 1018.5
20260509122454 35 132 1.6 12.9 0.00 0.00 0.00 19 1018.5
20260509121034 31 128 1.6 8.0 0.00 0.00 0.00 22 1018.7
20260509121014 31 127 1.6 8.0 0.00 0.00 0.00 22 1018.7
20260509120955 31 126 1.6 8.0 0.00 0.00 0.00 22 1018.6
20260509115535 28 131 1.6 14.5 0.00 0.00 0.00 23 1018.7
20260509115515 27 131 1.6 14.5 0.00 0.00 0.00 24 1018.7
20260509115455 27 130 1.6 14.5 0.00 0.00 0.00 24 1018.6
20260509114034 25 144 3.2 12.9 0.00 0.00 0.00 25 1018.7
20260509114015 23 144 1.6 12.9 0.00 0.00 0.00 26 1018.7
20260509113954 23 145 1.6 12.9 0.00 0.00 0.00 26 1018.7
20260509112547 25 140 1.6 11.3 0.00 0.00 0.00 25 1018.9
20260509112535 25 142 4.8 11.3 0.00 0.00 0.00 25 1018.8
20260509112515 25 140 1.6 11.3 0.00 0.00 0.00 25 1018.9
20260509112455 25 142 3.2 11.3 0.00 0.00 0.00 25 1018.9
20260509111101 20 140 1.6 12.9 0.00 0.00 0.00 27 1018.9
20260509111015 20 140 1.6 12.9 0.00 0.00 0.00 27 1018.9
20260509110955 20 140 0.0 12.9 0.00 0.00 0.00 27 1018.8
20260509105607 20 130 0.0 11.3 0.00 0.00 0.00 28 1019.0
20260509105535 20 130 0.0 11.3 0.00 0.00 0.00 28 1019.0
20260509105515 20 130 0.0 11.3 0.00 0.00 0.00 28 1018.9
20260509105455 20 132 1.6 11.3 0.00 0.00 0.00 28 1019.0
20260509104015 19 135 1.6 11.3 0.00 0.00 0.00 28 1019.1
20260509103955 19 136 1.6 11.3 0.00 0.00 0.00 28 1019.0
20260509102535 19 112 3.2 8.0 0.00 0.00 0.00 28 1019.1
20260509102515 19 112 1.6 8.0 0.00 0.00 0.00 28 1019.1
20260509102455 19 111 1.6 8.0 0.00 0.00 0.00 28 1019.2
20260509101035 18 131 3.2 12.9 0.00 0.00 0.00 28 1019.1
20260509101015 18 132 1.6 12.9 0.00 0.00 0.00 28 1019.1
20260509100955 18 132 1.6 12.9 0.00 0.00 0.00 28 1019.0
20260509095516 18 115 1.6 11.3 0.00 0.00 0.00 28 1019.2
20260509095456 18 117 4.8 11.3 0.00 0.00 0.00 28 1019.1
20260509094036 18 123 1.6 12.9 0.00 0.00 0.00 28 1019.3
20260509094016 18 122 1.6 12.9 0.00 0.00 0.00 28 1019.2
20260509093956 18 122 3.2 12.9 0.00 0.00 0.00 28 1019.2
20260509092536 17 123 1.6 12.9 0.00 0.00 0.00 29 1019.3
20260509092516 17 124 1.6 12.9 0.00 0.00 0.00 29 1019.4
20260509092456 17 123 4.8 11.3 0.00 0.00 0.00 29 1019.3
20260509091036 17 133 1.6 12.9 0.00 0.00 0.00 29 1019.4
20260509091016 17 135 1.6 12.9 0.00 0.00 0.00 29 1019.4
20260509090956 17 136 3.2 12.9 0.00 0.00 0.00 29 1019.4
20260509085536 16 128 1.6 11.3 0.00 0.00 0.00 29 1019.4
20260509085516 16 129 0.0 11.3 0.00 0.00 0.00 29 1019.4
20260509085456 16 130 1.6 11.3 0.00 0.00 0.00 29 1019.4
20260509084036 16 104 0.0 8.0 0.00 0.00 0.00 29 1019.3
20260509084016 16 103 1.6 8.0 0.00 0.00 0.00 29 1019.4
20260509083956 16 102 1.6 8.0 0.00 0.00 0.00 29 1019.3
20260509082537 16 138 0.0 6.4 0.00 0.00 0.00 29 1019.4
20260509082516 16 137 0.0 6.4 0.00 0.00 0.00 29 1019.4
20260509082456 16 138 0.0 6.4 0.00 0.00 0.00 29 1019.4
20260509081037 15 144 1.6 8.0 0.00 0.00 0.00 29 1019.5
20260509081017 15 146 1.6 8.0 0.00 0.00 0.00 29 1019.5
20260509080957 15 147 1.6 8.0 0.00 0.00 0.00 29 1019.5
20260509075537 15 141 0.0 8.0 0.00 0.00 0.00 30 1019.5
20260509075517 15 139 1.6 8.0 0.00 0.00 0.00 30 1019.4
20260509075457 15 140 1.6 8.0 0.00 0.00 0.00 30 1019.5
20260509074037 14 125 0.0 8.0 0.00 0.00 0.00 30 1019.5
20260509074017 14 126 0.0 8.0 0.00 0.00 0.00 30 1019.5
20260509073957 14 126 0.0 8.0 0.00 0.00 0.00 30 1019.6
20260509072537 13 118 1.6 8.0 0.00 0.00 0.00 30 1019.6
20260509072517 13 116 1.6 8.0 0.00 0.00 0.00 30 1019.6
20260509072457 13 116 4.8 8.0 0.00 0.00 0.00 30 1019.5
20260509071037 13 132 1.6 6.4 0.00 0.00 0.00 30 1019.6
20260509070957 13 133 1.6 6.4 0.00 0.00 0.00 30 1019.6
20260509065537 12 135 0.0 6.4 0.00 0.00 0.00 30 1019.5
20260509065518 12 135 0.0 6.4 0.00 0.00 0.00 30 1019.6
20260509065457 12 134 0.0 6.4 0.00 0.00 0.00 30 1019.6
20260509064037 12 134 1.6 6.4 0.00 0.00 0.00 31 1019.7
20260509064017 12 134 0.0 6.4 0.00 0.00 0.00 31 1019.7
20260509063957 12 136 0.0 6.4 0.00 0.00 0.00 31 1019.7
20260509062538 12 125 0.0 6.4 0.00 0.00 0.00 31 1019.7
20260509062518 12 124 1.6 6.4 0.00 0.00 0.00 31 1019.7
20260509062457 12 124 1.6 3.2 0.00 0.00 0.00 31 1019.7
20260509061038 12 118 0.0 6.4 0.00 0.00 0.00 31 1019.6
20260509061018 12 119 0.0 6.4 0.00 0.00 0.00 31 1019.6
20260509060958 12 119 0.0 6.4 0.00 0.00 0.00 31 1019.7
20260509055538 11 120 0.0 6.4 0.00 0.00 0.00 31 1019.5
20260509055518 11 120 1.6 6.4 0.00 0.00 0.00 31 1019.5
20260509055458 11 121 3.2 6.4 0.00 0.00 0.00 31 1019.5
20260509054038 10 119 1.6 8.0 0.00 0.00 0.00 31 1019.5
20260509054018 11 118 1.6 8.0 0.00 0.00 0.00 31 1019.5
20260509053958 10 117 1.6 8.0 0.00 0.00 0.00 31 1019.5
20260509052538 10 135 0.0 3.2 0.00 0.00 0.00 31 1019.3
20260509052518 10 136 0.0 3.2 0.00 0.00 0.00 31 1019.3
20260509052458 10 137 1.6 3.2 0.00 0.00 0.00 31 1019.3
20260509051033 10 120 0.0 6.4 0.00 0.00 0.00 31 1019.2
20260509051013 10 120 0.0 6.4 0.00 0.00 0.00 32 1019.2
20260509050953 10 121 0.0 6.4 0.00 0.00 0.00 31 1019.2
20260509045533 9 153 0.0 6.4 0.00 0.00 0.00 32 1019.1
20260509045513 9 155 1.6 6.4 0.00 0.00 0.00 32 1019.1
20260509045453 9 157 0.0 6.4 0.00 0.00 0.00 32 1019.1
20260509044034 9 139 1.6 6.4 0.00 0.00 0.00 32 1019.1
20260509044014 9 138 1.6 6.4 0.00 0.00 0.00 32 1019.2
20260509043953 9 137 0.0 6.4 0.00 0.00 0.00 32 1019.0
20260509042534 9 148 0.0 3.2 0.00 0.00 0.00 32 1019.0
20260509042514 9 148 1.6 3.2 0.00 0.00 0.00 32 1019.0
20260509042454 9 147 1.6 3.2 0.00 0.00 0.00 32 1018.9